#timestamp,LO_Frequency,Hit,StdDev 
1560279615.7,286046996.9,N
1560279635.6,286046998.4,N
1560279655.4,286046997.5,N
1560279675.2,286046996.5,N
1560279695.1,286046996.6,N
1560279696.0,286046996.6,N
1560279715.8,286046999.2,N
1560279735.6,286046997.2,N
1560279755.5,286046995.2,N
1560279775.3,286046995.8,N
1560279795.2,286046996.7,N
1560279815.9,286046995.5,N
1560279835.7,286046996.5,N
1560279855.6,286046997.2,N
1560279875.4,286046997.8,N
1560279895.2,286046999.0,N
1560279915.1,286046996.7,N
1560279916.0,286046996.7,N
1560279935.8,286046997.1,N
1560279955.7,286046997.1,N
1560279975.5,286047001.1,N
1560279995.3,286046998.6,N
1560280015.2,286046999.1,N
1560280035.0,286046998.4,N
1560280035.9,286046998.4,N
1560280055.7,286046998.2,N
1560280075.6,286046999.4,N
1560280095.4,286046999.1,N
1560280115.3,286046999.6,N
1560280135.1,286046997.0,N
1560280136.0,286046997.0,N
1560280155.8,286046996.9,N
1560280175.7,286047000.7,N
1560280195.5,286046999.2,N
1560280215.3,286046997.0,N
1560280235.2,286046996.8,N
1560280255.0,286046997.4,N
1560280255.9,286046997.4,N
1560280275.8,286046998.9,N
1560280295.6,286047000.7,N
1560280315.4,286046999.9,N
1560280335.3,286046999.8,N
1560280355.1,286047001.9,N
1560280375.8,286047000.6,N
1560280395.7,286047002.8,N
1560280415.5,286047002.3,N
1560280435.4,286047001.0,N
1560280455.2,286047000.6,N
1560280475.0,286047001.9,N
1560280475.9,286047001.9,N
1560280495.8,286047003.5,N
1560280515.6,286047004.9,N
1560280535.5,286047006.6,Y
1560280555.3,286047006.3,P
1560280575.1,286047009.4,N
1560280595.9,286047014.0,P
1560280615.7,286047012.8,N
1560280635.5,286047012.6,N
1560280655.4,286047012.7,N
1560280675.2,286047016.8,Y
1560280695.1,286047004.4,P
1560280696.0,286047004.4,N
1560280715.8,286047001.3,N
1560280735.6,286047003.7,N
1560280755.5,286047002.7,N
1560280775.3,286047004.0,N
1560280795.1,286047004.0,N
1560280815.9,286047005.7,N
1560280835.7,286047004.8,N
1560280855.6,286047007.5,Y
1560280875.4,286047001.3,P
1560280895.2,286047004.1,N
1560280915.1,286047003.7,N
1560280916.0,286047003.7,N
1560280935.8,286047006.0,Y
1560280955.6,286047001.6,P
1560280975.5,286047003.6,P
1560280995.3,286047001.6,N
1560281015.2,286047001.9,N
1560281035.9,286047004.3,Y
1560281055.7,286047002.7,P
1560281075.6,286047000.3,N
1560281095.4,286047000.6,N
1560281115.2,286046999.4,N
1560281135.1,286046997.6,N
1560281136.0,286046997.6,N
1560281155.8,286046996.4,N
1560281175.7,286046993.6,N
1560281195.5,286046994.6,N
1560281215.3,286046994.8,N
1560281235.2,286046990.4,Y
1560281255.0,286046991.9,P
1560281255.9,286046991.9,N
1560281275.7,286046994.8,N
1560281295.6,286046992.1,Y
1560281315.4,286046999.0,P
1560281335.3,286047000.6,N
1560281355.1,286047001.5,N
1560281375.8,286047003.5,N
1560281395.7,286047002.9,N
1560281415.5,286047002.0,N
1560281435.3,286047002.2,N
1560281455.2,286047001.7,N
1560281475.0,286047003.8,N
1560281475.9,286047003.8,N
1560281495.8,286047003.6,N
1560281515.6,286047003.3,N
1560281535.4,286047003.1,N
1560281555.3,286047001.8,N
1560281575.1,286047002.3,N
1560281595.9,286047004.4,N
1560281615.7,286047004.4,N
1560281635.5,286047002.9,N
1560281655.4,286047005.7,N
1560281675.2,286047003.6,N
1560281695.0,286047006.0,N
1560281695.9,286047006.0,N
1560281715.8,286047004.9,N
1560281735.6,286047007.6,Y
1560281755.5,286047005.7,P
1560281775.3,286047009.0,P
1560281795.1,286047008.6,P
1560281815.9,286047010.6,Y
1560281835.7,286047001.3,P
1560281855.5,286047005.4,N
1560281875.4,286047003.4,N
1560281895.2,286047004.0,N
1560281915.1,286047003.5,N
1560281916.0,286047003.5,N
1560281935.8,286047003.1,N
1560281955.6,286047003.4,N
1560281975.5,286047002.9,N
1560281995.3,286047003.2,N
1560282015.1,286047011.9,Y
1560282035.9,286047000.4,P
1560282055.7,286047000.4,N
1560282075.6,286047000.7,N
1560282095.4,286047002.8,N
1560282115.2,286047002.6,N
1560282135.1,286047001.4,N
1560282136.0,286047001.4,N
1560282155.8,286047002.4,N
1560282175.6,286047000.2,N
1560282195.5,286047000.5,N
1560282215.3,286046999.9,N
1560282235.2,286047002.7,N
1560282255.9,286047003.7,Y
1560282275.7,286047002.9,P
1560282295.6,286047002.7,P
1560282315.4,286046999.0,N
1560282335.2,286046996.5,N
1560282355.1,286046996.8,N
1560282356.0,286046996.8,N
1560282375.8,286046999.0,N
1560282395.7,286046998.9,N
1560282415.5,286046999.9,N
1560282435.3,286047001.3,N
1560282455.2,286047003.2,N
1560282475.0,286047005.3,N
1560282475.9,286047005.3,N
1560282495.7,286047004.5,N
1560282515.6,286047005.5,N
1560282535.4,286047005.3,N
1560282555.3,286047005.9,N
1560282575.1,286047003.1,N
1560282576.0,286047003.1,N
1560282595.8,286047003.7,N
1560282615.7,286047002.5,N
1560282635.5,286046998.3,N
1560282655.3,286046996.5,N
1560282675.2,286046999.2,N
1560282695.0,286047000.1,N
1560282695.9,286047000.1,N
1560282715.8,286047000.5,N
1560282735.6,286047000.3,N
1560282755.4,286047000.3,N
1560282775.3,286047000.1,N
1560282795.1,286047002.2,N
1560282815.8,286047002.6,N
1560282835.7,286047001.4,N
1560282855.5,286047004.1,N
1560282875.4,286047002.0,N
1560282895.2,286047002.0,N
1560282915.0,286047002.5,N
1560282915.9,286047002.5,N
1560282935.8,286047002.7,N
1560282955.6,286047001.9,N
1560282975.4,286047000.1,N
1560282995.3,286047001.9,N
1560283015.1,286047005.9,N
1560283035.9,286047002.5,N
1560283055.7,286046996.9,N
1560283075.5,286046997.1,N
1560283095.4,286046995.0,N
1560283115.2,286046996.0,N
1560283135.0,286046996.3,N
1560283135.9,286046996.3,N
1560283155.8,286046993.6,N
1560283175.6,286046991.8,N
1560283195.5,286046993.0,N
